Regional Weather Roundup
Issued by NWS Newport/Morehead, NC

Current Version | Previous Version | Text Only | Print | Product List | Glossary On
Versions: 1 2 3 4 5 6 7 8 9 10 11 12 13 14 15 16 17 18 19 20 21 22 23 24 25 26 27 28 29 30 31 32 33 34 35 36 37 38 39 40 41 42 43 44 45 46 47 48 49 50
000
ASUS42 KMHX 191610
RWRMHX
WEATHER ROUNDUP FOR EASTERN NORTH CAROLINA
NATIONAL WEATHER SERVICE NEWPORT/MOREHEAD CITY NC
1200 PM EDT SAT APR 19 2014

NOTE: "FAIR" INDICATES FEW OR NO CLOUDS BELOW 12,000 FEET
WITH NO SIGNIFICANT WEATHER AND/OR OBSTRUCTIONS TO VISIBILITY

NCZ015>017-031-032-045>047-102-103-191700-
NORTH COAST

CITY           SKY/WX    TMP DP  RH WIND       PRES   REMARKS
EDENTON        LGT RAIN  49  45  87 NE10G18   30.19S
ELIZABETH CITY LGT RAIN  50  42  74 NE14      30.22S
KITTY HAWK     LGT RAIN  47  44  88 NE10G20   30.19S
MANTEO         LGT RAIN  47  43  85 NE21      30.18F

$$

NCZ045>047-081-094-103-104-191700-
CENTRAL COAST

CITY           SKY/WX    TMP DP  RH WIND       PRES   REMARKS
FRISCO         LGT RAIN  53  53 100 NE16G26   30.10F FOG
SWANQUARTER      N/A     52 N/A N/A NE22G32   30.09F

$$

NCZ095-097-098-100-101-191700-
SOUTHERN COAST

CITY           SKY/WX    TMP DP  RH WIND       PRES   REMARKS
BEAUFORT       CLOUDY    56  54  93 NE17G29   30.06S
CEDAR ISLAND     N/A     55 N/A N/A NE45      30.12F
JACKSONVILLE   CLOUDY    56  56 100 N15G22    30.06R
NEWPORT          N/A     57  55  94 NE8G20      N/A
PINEY ISLAND   LGT RAIN  56  56 100 NE24G31   30.09F
WILMINGTON     CLOUDY    56  53  90 NE13      30.06S


$$

NCZ011>013-027>030-043-044-078>080-089-090>093-098-191700-
COASTAL PLAIN

CITY           SKY/WX    TMP DP  RH WIND       PRES   REMARKS
AHOSKIE        CLOUDY    49  45  87 NE6       30.21R
CLINTON        DRIZZLE   50  50  99 NE8G18    30.12S
ELIZABETHTOWN  DRIZZLE   51  51 100 NE5       30.09F
GOLDSBORO      RAIN      50  50 100 NE9       30.13R FOG
GREENVILLE     DRIZZLE   50  46  87 NE13G18   30.16S
HAVELOCK       CLOUDY    56  52  86 NE17G26   30.09S
KENANSVILLE    LGT RAIN  49  48  95 NE6       30.13S
KINSTON        RAIN      50  48  93 N8        30.14R
NEW BERN       LGT RAIN  55  51  86 NE17G25   30.11F
RICHLANDS      CLOUDY    52  52 100 N7        30.10R
ROANOKE RAPIDS NOT AVBL
ROCKY MOUNT    LGT RAIN  49  46  90 N13       30.19R FOG
WASHINGTON     CLOUDY    50  46  85 NE13G20   30.15S
WHITEVILLE     CLOUDY    53  51  94 NE8       30.06F

$$

AMZ130-135-150-152-154-156-158-170-250-252-270-ANZ085-086-088-633-658-670-191700-
MARINE OBSERVATIONS

STATION/POSITION TIME  TEMP    WIND        PRES    WAVE   SWELL
                       AIR SEA DIR/SP/G            HT/PER HT/PER
                 (UTC) (F)     (DEG/KT/KT) (MB)    (FT/S) (FT/S)
CHESAPEAKE LIGHT 1500   46      40/ 17/ 18 1024.7
BUOY 44014       1600   52 48   30/ 14/ 16 1022.9    7/11   5/11
DUCK             1600   47 49   40/ 21/ 23 1022.1
2E DUCK          1600      47                N/A     6/ 6   2/11
OREGON INLET     1600   49 51   20/ 17/ 22 1021.5
BUOY 44095       1600      48                N/A     7/ 6   2/11
HATTERAS CG      1600   54 56   30/ 18/ 26 1019.3
DIAMOND BUOY     NOT AVBL
CAPE LOOKOUT     1500   56      30/ 31/ 37 1017.6
BEAUFORT LAB     1600   55 58   40/ 15/ 28 1017.1
30 SE NEW RIVER  1600   59 66   40/ 27/ 33 1016.1    8/ 7   3/ 9
5 SE WRIGHTSVILL 1500   59 59   40/ 17/ 21 1017.2
FRYING PAN BUOY  1600   66 68   60/ 19/ 25 1014.2    7/ 7   2/10
BUOY 41001       NOT AVBL
BUOY 41002       NOT AVBL
BUOY 41004       NOT AVBL

$$



USA.gov is the U.S. government's official web portal to all federal, state and local government web resources and services.